GEFSNGP_con_probscp_240.txt.gz
Probability
0 0 0 0 0 0 0 0 0 0 1 5 8 13 21 29 34 38 45 51 55 61 68 73 75 74 68 60 55 53 54 56 58 57 53 45 40 37 36 37 37 36 33 30
0 0 0 0 0 0 0 0 0 0 3 8 12 18 26 33 36 41 48 54 58 61 66 70 72 73 70 65 61 59 57 56 55 54 49 44 39 37 37 38 38 36 32 29
0 0 0 0 0 0 0 0 1 2 5 12 19 25 31 36 38 43 50 56 59 61 63 65 68 70 70 68 65 62 58 55 53 50 46 41 38 36 36 37 38 36 32 29
0 0 0 0 0 0 0 1 3 4 7 14 22 29 32 35 38 44 52 57 58 58 59 63 67 70 69 65 62 59 56 54 52 49 45 41 38 37 36 36 37 37 34 32
1 1 1 1 0 0 1 2 4 4 7 13 21 26 29 32 38 46 54 57 56 54 57 64 69 71 69 64 59 56 53 53 52 49 46 42 41 41 39 37 37 37 36 35
3 2 2 1 0 1 2 3 4 5 9 15 19 23 27 32 39 50 58 60 58 58 62 67 72 73 71 66 61 57 55 54 53 51 48 45 44 45 43 40 38 37 36 36
3 2 2 2 1 4 9 12 10 9 13 18 20 23 31 38 45 54 61 64 66 68 70 72 74 73 72 71 67 64 61 59 56 53 50 48 48 50 47 44 41 38 37 35
3 5 8 8 7 13 23 26 21 16 17 22 25 29 37 48 53 57 61 66 69 73 75 75 75 75 76 76 75 73 70 64 60 56 51 50 52 52 49 46 42 38 35 33
8 11 17 17 17 23 30 31 25 21 23 27 30 35 44 54 59 61 63 64 66 70 73 74 73 73 76 78 78 77 72 66 60 56 53 54 53 49 45 43 40 36 33 30
15 16 20 22 24 27 27 25 23 23 26 29 32 38 48 57 62 63 63 62 61 64 70 71 70 69 72 73 74 73 69 63 56 51 50 53 51 45 40 37 35 34 31 29
23 24 25 25 27 27 26 23 24 26 27 30 33 38 48 56 60 60 60 59 60 63 67 68 67 67 67 68 68 67 63 57 51 47 46 47 45 40 34 29 27 26 26 26
27 30 30 30 30 30 29 28 29 30 32 36 39 42 49 56 57 56 56 58 62 64 65 65 65 64 65 65 63 60 56 51 46 43 42 41 39 33 25 19 16 16 17 17
26 28 29 30 32 33 34 34 34 36 39 43 46 47 50 55 55 54 55 58 61 62 61 62 62 62 63 63 60 55 51 46 41 37 35 34 33 31 23 16 11 10 9 7
21 23 24 27 31 35 36 37 38 40 43 47 48 47 47 50 51 51 53 56 56 56 56 57 59 60 59 59 56 51 47 43 39 34 31 29 29 29 25 20 16 12 8 5
18 19 21 25 30 34 38 40 42 44 46 48 49 47 45 46 48 50 53 53 54 54 53 54 56 57 55 52 49 46 42 39 35 33 30 27 26 26 25 23 20 17 12 9
18 19 22 27 30 33 37 39 41 43 46 47 48 48 47 47 50 52 53 54 56 57 57 56 55 53 51 46 42 40 37 32 29 29 27 25 25 26 25 25 23 20 17 15
22 25 28 29 31 33 34 33 34 37 41 42 43 45 47 49 52 55 54 55 58 59 58 56 52 48 46 43 39 34 31 28 26 27 25 24 26 27 26 26 25 22 18 17
23 25 26 26 29 30 29 28 28 31 35 37 37 40 45 50 54 57 56 57 56 56 55 50 44 40 39 38 35 31 29 28 29 29 27 25 25 25 24 24 24 21 18 16
20 20 20 21 24 26 26 24 24 27 32 35 35 38 42 47 52 53 53 53 53 52 51 46 39 36 36 34 32 31 30 29 30 30 27 24 23 22 20 20 21 19 17 15
17 17 17 19 21 23 25 25 24 27 30 33 36 38 40 43 45 45 45 46 48 50 49 42 36 34 35 33 30 30 30 29 29 28 25 22 21 21 20 19 18 17 15 15
19 18 19 20 21 22 25 27 28 28 29 32 36 37 38 39 38 38 38 38 41 44 39 32 28 29 29 28 25 26 28 28 27 24 22 22 21 21 20 19 17 16 15 15
22 21 21 22 23 23 25 28 28 28 29 32 34 33 33 34 34 35 34 33 32 29 25 21 20 20 19 19 20 23 25 25 24 22 22 22 22 20 19 18 16 15 16 16
24 23 23 24 24 24 25 26 27 27 29 30 29 28 30 32 33 33 30 26 21 17 15 14 12 10 10 13 16 18 20 20 20 20 21 21 20 19 17 16 15 15 16 16
24 24 24 23 22 23 25 25 24 25 26 25 24 24 27 30 30 28 24 18 13 11 10 7 4 2 5 9 12 13 14 15 15 16 19 20 19 17 16 15 15 15 15 16
22 22 22 23 22 20 20 20 20 20 20 19 20 22 23 25 25 24 19 14 9 7 6 3 0 0 2 5 7 8 9 10 10 12 16 18 16 13 13 13 13 14 14 15
20 19 19 21 20 17 14 13 15 16 16 17 18 19 20 20 21 19 16 12 9 7 4 2 1 1 2 3 4 5 6 8 9 9 11 13 12 11 9 9 11 12 13 13
18 17 17 17 16 13 11 10 12 15 16 17 18 19 18 18 16 14 12 11 11 9 6 4 2 1 2 4 4 4 6 9 9 8 8 9 11 10 8 7 10 12 13 12

GEFSNGP_con_probscp_246.txt.gz
Probability
0 0 0 0 0 0 0 0 0 0 1 3 8 15 21 26 29 31 31 31 32 31 29 29 30 32 35 37 38 39 41 41 38 31 24 20 17 17 17 16 15 13 12 12
0 0 0 0 0 0 0 0 0 1 2 6 12 18 24 27 28 28 28 29 33 33 30 28 29 32 35 38 40 41 43 43 39 33 26 21 18 18 18 18 16 15 14 13
0 0 0 0 0 0 0 0 0 1 4 8 15 22 25 26 26 26 26 29 32 34 32 31 32 33 36 40 43 44 44 42 40 35 28 22 19 19 19 18 17 17 16 17
0 0 0 0 0 0 1 1 2 4 6 11 16 20 22 25 26 27 29 32 33 35 38 39 39 39 39 42 45 46 44 41 38 34 28 22 20 20 20 18 17 17 18 20
0 0 0 1 1 2 2 3 5 8 10 13 16 18 20 23 26 29 32 34 35 39 44 45 44 44 44 44 46 47 45 41 37 32 28 25 23 22 21 19 18 18 20 21
0 0 0 1 3 3 3 4 8 12 13 15 17 18 19 21 26 33 35 35 36 41 47 47 45 46 48 47 45 44 43 40 35 31 28 26 25 24 23 24 23 23 22 22
0 0 0 2 4 4 3 4 9 15 17 16 18 20 21 24 31 38 38 36 37 42 48 49 48 49 48 45 42 41 39 35 32 29 27 26 26 27 28 28 27 25 24 22
0 1 1 2 4 5 5 7 12 18 20 20 23 25 27 31 36 41 41 40 42 45 48 49 51 50 47 42 40 41 39 34 30 27 26 26 27 29 31 30 27 24 22 20
1 2 3 3 5 7 9 13 18 21 25 29 31 32 33 36 39 41 42 44 47 48 47 47 49 49 46 41 41 43 42 36 30 27 26 25 26 28 29 28 26 22 20 19
4 4 6 7 8 11 15 20 25 28 33 37 39 37 37 39 41 41 41 44 48 48 47 46 48 48 46 42 42 43 42 38 32 28 26 24 23 24 24 24 23 21 20 19
6 7 9 11 13 16 20 26 32 36 40 43 43 42 41 40 40 40 41 42 45 46 45 45 45 46 45 44 43 42 40 38 35 32 27 23 21 19 18 19 19 18 18 18
7 7 9 12 16 20 25 31 36 40 43 43 43 43 44 41 36 36 39 41 42 42 42 42 42 42 42 42 43 41 38 37 37 34 28 24 20 16 14 13 12 11 11 12
7 7 8 10 15 22 28 32 37 40 40 39 39 40 42 38 32 32 35 38 38 38 38 40 41 40 39 39 40 40 39 37 35 32 28 24 20 17 14 10 8 5 4 4
8 8 7 9 15 23 28 30 33 36 36 35 34 34 35 33 30 29 30 31 33 34 36 37 37 36 35 36 36 36 37 35 32 30 28 24 22 20 17 13 9 6 3 1
10 9 9 12 19 25 27 28 29 32 33 32 30 29 28 27 26 25 25 25 27 29 30 32 33 31 32 33 32 30 31 31 30 29 29 27 26 24 22 19 15 10 6 3
13 13 14 16 20 25 26 26 26 28 28 26 24 22 22 23 23 23 22 21 21 23 25 28 30 30 29 29 28 27 28 29 28 26 26 27 27 27 26 24 19 16 11 8
12 14 15 16 18 22 23 22 23 24 23 21 19 18 18 20 21 20 19 18 18 20 23 25 27 27 25 25 24 23 24 26 25 24 23 23 25 26 26 25 24 22 17 12
9 11 13 14 16 18 19 19 20 21 22 21 19 17 16 18 19 19 18 19 20 20 21 21 22 22 21 21 19 17 18 20 22 21 20 20 21 22 22 22 23 22 17 13
9 11 12 13 14 16 17 18 18 19 20 20 18 18 17 18 18 18 18 20 21 20 19 18 18 18 18 18 16 14 14 16 17 16 16 16 16 16 15 15 17 17 14 12
9 11 12 13 15 16 17 17 17 16 15 16 17 18 18 18 18 18 17 18 19 18 16 15 15 15 16 16 16 15 14 14 13 12 12 12 13 11 10 10 12 13 12 11
7 9 11 14 16 17 16 16 17 16 15 14 15 17 18 18 18 18 17 17 17 16 14 14 14 14 14 15 15 15 14 13 11 10 10 10 11 9 7 7 9 10 10 10
6 7 10 15 16 15 15 15 15 15 15 14 15 15 16 17 17 18 17 16 15 14 13 13 13 12 12 13 13 13 13 11 10 9 10 10 9 8 5 4 6 7 7 7
7 7 10 14 14 13 13 12 11 11 13 13 13 12 13 14 15 16 15 13 12 11 10 9 8 7 8 10 10 10 10 9 8 8 8 9 8 6 4 3 4 4 5 5
10 9 9 10 11 10 9 9 7 7 8 10 10 10 11 12 13 13 12 9 8 7 6 4 3 3 4 6 8 8 7 7 6 5 5 5 5 3 2 2 2 3 3 3
10 8 6 6 6 6 6 5 5 4 5 6 7 8 10 12 11 10 8 6 4 4 3 2 1 0 1 4 5 5 5 5 4 3 2 2 1 1 0 1 1 1 1 1
7 5 4 4 4 4 3 3 3 3 4 4 5 6 9 11 9 7 4 3 2 1 2 1 0 0 0 1 2 3 3 2 1 1 1 0 0 0 0 0 0 0 0 0
5 4 3 3 3 3 3 3 3 3 4 4 4 5 7 8 7 4 2 1 0 0 1 1 0 0 0 0 0 1 1 0 0 0 0 0 0 0 0 0 0 0 0 0

GEFSNGP_con_probscp_252.txt.gz
Probability
0 0 0 0 0 0 0 0 0 0 0 0 2 5 8 9 9 11 15 15 11 10 10 10 13 15 12 9 10 12 14 16 17 16 13 11 9 7 6 6 7 8 9 10
0 0 0 0 0 0 0 0 0 0 0 0 3 7 10 11 10 12 14 14 11 8 8 8 12 15 14 11 11 13 15 17 18 16 13 13 12 10 8 8 9 10 10 10
0 0 0 0 0 0 0 0 0 1 1 2 5 8 10 11 12 12 12 12 9 6 5 7 10 14 15 13 14 16 18 19 18 15 14 15 16 14 12 11 11 11 10 9
0 0 0 0 0 0 0 0 1 2 3 3 6 8 9 10 11 10 10 9 7 4 5 9 13 16 16 15 17 19 20 20 20 18 16 17 18 17 15 14 13 12 10 9
0 0 0 0 0 0 0 1 3 4 4 5 7 8 9 9 10 10 11 10 7 5 8 14 19 21 22 21 21 20 20 22 23 22 20 19 19 18 16 14 13 12 10 9
0 0 0 0 0 0 0 2 3 5 6 7 9 9 9 10 12 13 14 14 13 13 16 21 24 26 28 26 22 19 19 21 23 23 22 20 19 17 15 14 14 12 10 10
0 0 0 0 0 0 0 1 3 5 8 10 10 10 11 12 15 18 18 18 19 20 22 24 27 28 28 24 18 16 18 20 22 24 23 20 17 16 15 13 13 13 12 12
0 0 0 0 1 1 1 2 5 7 10 12 11 11 12 13 16 20 20 19 20 22 22 23 24 25 24 19 14 14 16 18 20 23 23 20 16 15 15 13 13 14 14 13
0 1 1 2 3 3 4 7 9 11 12 13 12 12 12 13 15 20 22 21 21 21 21 20 20 21 21 18 17 16 16 17 19 21 21 19 15 15 15 15 14 14 15 15
1 3 5 7 8 7 8 11 13 13 14 14 13 13 14 14 16 21 25 25 23 22 21 19 19 21 22 23 23 21 19 19 18 18 18 17 15 14 15 17 18 17 16 16
2 4 7 9 10 10 11 13 14 14 15 15 14 16 16 17 20 24 25 23 21 21 21 21 21 23 25 26 26 24 22 20 17 16 17 17 16 15 16 17 17 16 15 14
3 5 6 7 8 10 11 12 13 14 14 15 16 18 20 24 25 24 21 18 16 17 21 23 23 24 25 26 26 25 23 20 17 17 18 19 18 17 17 16 12 10 9 9
4 4 4 4 5 7 9 11 11 12 13 14 16 18 22 27 26 22 17 15 15 17 20 22 24 24 25 25 26 26 24 22 20 19 20 21 19 18 19 16 11 7 4 3
4 4 3 3 4 6 9 11 11 11 11 12 15 17 21 24 23 20 18 16 15 17 18 20 23 24 23 24 26 26 24 21 20 20 20 19 18 17 18 19 17 13 7 4
4 4 4 4 6 8 10 10 11 11 11 12 14 17 19 19 19 18 18 16 15 15 16 19 22 22 21 22 24 22 20 17 16 17 17 16 16 15 16 18 20 18 13 10
6 6 6 7 9 10 10 11 11 10 10 12 14 16 17 16 16 17 17 16 13 11 12 17 20 20 19 20 20 19 18 15 13 13 14 14 13 13 14 15 18 18 16 13
6 6 7 10 12 12 11 11 11 10 10 11 13 14 15 14 15 16 16 14 11 8 8 12 15 17 18 18 17 17 16 16 14 13 13 12 11 11 11 12 13 15 14 12
5 5 7 9 11 13 12 11 10 10 10 10 12 13 13 13 13 13 13 12 11 8 6 7 9 12 13 13 13 13 13 13 13 13 11 10 10 10 10 10 11 11 9 7
3 5 6 7 9 10 10 9 8 8 8 9 10 12 12 11 10 9 10 11 10 9 7 6 7 10 10 9 9 8 8 10 12 12 11 10 10 10 10 10 10 10 7 4
1 3 5 7 8 8 8 8 7 6 6 7 9 10 10 10 9 9 10 11 10 8 7 7 8 10 9 7 6 6 7 10 12 13 11 10 10 10 9 9 10 10 8 5
0 1 4 7 7 7 6 6 6 5 5 6 8 9 10 10 10 10 10 10 8 7 6 6 8 9 7 6 6 7 8 10 12 13 12 11 10 9 9 8 9 9 8 7
0 2 4 6 7 6 6 5 5 4 4 5 7 8 10 11 11 10 9 8 5 4 4 4 5 6 5 5 6 8 8 8 9 10 10 9 8 8 7 6 8 8 7 7
1 2 4 5 6 6 5 3 3 2 2 5 6 8 10 10 10 9 7 4 1 1 2 3 3 2 3 5 6 7 7 6 5 6 6 6 5 5 4 4 5 5 6 6
3 3 3 4 4 4 3 2 2 2 2 4 5 7 9 9 8 7 4 2 0 0 1 2 1 1 2 3 5 5 5 5 4 4 4 3 3 3 3 3 3 4 5 6
3 3 3 4 3 2 2 3 3 3 3 3 4 5 7 7 7 5 3 1 0 0 0 0 0 0 1 1 2 3 3 3 3 4 3 2 3 3 3 3 3 4 5 6
2 2 3 3 2 1 2 3 3 3 3 3 3 2 3 4 4 4 2 1 0 0 1 1 0 0 0 0 0 1 1 1 1 2 1 1 1 2 2 2 2 3 4 4
1 1 1 2 1 1 2 3 3 3 3 3 2 1 1 2 3 3 1 0 0 1 2 2 1 0 0 0 0 0 0 0 0 1 0 0 0 1 1 1 1 1 2 2

GEFSNGP_con_probscp_258.txt.gz
Probability
0 0 0 0 0 0 0 0 0 1 2 4 4 4 4 5 8 14 19 21 23 27 31 33 36 36 32 30 31 32 33 32 31 32 33 31 27 25 24 23 22 23 24 23
0 0 0 0 0 0 0 0 0 1 2 3 4 5 6 9 13 17 20 22 25 29 32 35 38 39 37 36 36 35 36 34 32 31 32 32 30 28 27 26 25 26 27 26
0 0 0 0 0 0 0 0 0 0 1 3 5 6 10 14 18 21 23 25 28 30 33 36 38 40 42 44 43 41 40 38 35 32 32 33 34 33 33 33 33 32 31 31
0 0 0 0 0 0 0 0 1 1 3 6 8 9 12 17 21 25 28 30 33 33 35 38 38 39 44 47 47 45 44 42 38 36 35 37 38 37 37 38 39 38 36 36
0 0 0 0 0 0 0 1 3 5 7 10 10 11 16 23 28 32 33 34 36 37 40 44 43 44 48 49 47 46 45 42 38 37 39 40 40 39 39 40 40 39 37 36
0 0 0 0 0 0 1 3 5 7 9 11 12 14 22 30 34 37 38 37 37 41 46 51 51 51 53 53 52 50 46 41 38 39 40 41 42 41 39 39 38 36 34 33
0 0 0 0 0 1 3 5 6 7 9 11 13 17 24 31 36 39 41 40 38 43 50 54 55 54 55 57 57 55 50 44 41 40 41 42 43 43 41 39 37 35 32 30
0 0 1 2 3 5 9 10 9 8 10 12 14 18 24 31 36 40 44 42 41 46 53 56 54 52 55 57 57 54 51 47 42 41 42 43 42 42 40 37 34 32 30 28
1 3 6 8 9 11 14 14 13 12 12 13 15 18 25 34 41 46 48 47 45 48 54 57 54 51 53 54 53 51 51 48 42 39 40 41 39 36 33 31 29 27 28 28
6 8 11 13 14 15 16 16 16 15 14 14 16 20 26 37 46 51 52 50 47 46 51 55 54 51 50 52 52 52 51 48 41 35 34 35 34 29 25 24 24 25 27 28
12 14 16 17 17 17 16 17 17 15 15 15 17 21 27 36 46 50 50 50 47 44 46 51 53 51 49 50 53 54 52 47 40 33 28 27 26 22 18 19 20 21 22 22
17 18 18 18 18 18 17 18 18 16 16 17 18 22 29 37 43 47 47 48 47 45 45 48 51 50 47 47 51 52 49 43 36 31 26 23 21 18 15 13 12 11 12 12
20 19 18 18 18 17 16 16 17 17 18 20 22 26 33 39 41 43 44 44 44 45 46 47 48 47 45 44 48 48 44 37 32 29 26 24 22 20 18 14 10 7 6 5
18 17 17 18 17 15 12 12 13 15 18 22 27 32 37 40 39 39 40 39 38 40 42 44 45 43 41 41 44 43 39 34 31 29 28 28 27 25 24 21 17 13 9 6
14 14 14 15 15 14 12 11 12 15 18 23 27 33 37 38 37 37 36 35 35 38 40 41 40 37 36 39 40 40 38 34 31 30 30 30 29 28 27 25 23 20 16 13
12 13 13 13 14 14 15 15 16 17 20 23 25 29 32 33 33 33 34 35 37 40 41 39 35 32 35 39 39 38 35 31 29 30 30 30 29 29 28 26 24 22 19 17
12 14 14 13 14 15 15 16 17 18 19 20 21 24 27 28 28 30 32 34 36 37 37 34 31 31 36 39 37 34 30 26 25 27 29 29 28 28 27 26 23 21 18 17
11 12 13 13 14 14 14 13 14 14 15 17 18 19 22 24 25 27 28 30 31 31 29 26 25 28 32 33 32 29 25 24 22 22 23 23 21 22 22 21 19 18 16 14
10 10 10 10 12 14 14 12 11 11 13 15 16 17 19 21 23 24 24 24 25 25 23 21 20 21 24 25 24 23 21 21 20 18 16 14 13 13 13 13 13 12 12 11
9 9 8 8 11 14 14 12 11 10 12 14 15 15 16 17 18 19 20 19 19 20 20 19 19 20 22 21 18 18 17 17 17 16 13 11 11 10 8 8 8 8 9 9
5 5 6 7 9 11 12 11 10 10 11 12 13 13 13 13 14 15 17 16 15 16 17 18 19 21 20 17 15 16 16 16 16 16 15 13 11 10 9 9 9 9 9 9
2 2 2 4 7 9 9 9 9 9 10 11 11 11 12 12 12 13 15 15 13 13 14 16 17 17 16 14 14 15 15 16 16 16 15 14 12 11 11 11 10 9 9 10
2 1 1 2 5 7 7 7 7 8 9 10 10 11 12 12 12 13 13 13 12 11 11 12 11 10 10 11 12 13 13 13 13 13 12 11 10 9 9 9 8 8 8 8
2 2 2 1 3 5 6 6 6 7 8 9 9 10 11 11 12 13 14 11 10 9 9 7 4 4 6 8 9 9 9 9 9 9 9 8 6 6 6 6 6 6 5 5
3 3 2 1 2 3 4 4 5 6 6 8 7 7 6 7 10 13 14 12 9 8 7 4 1 0 2 4 5 6 6 6 5 6 6 5 4 3 4 4 4 4 3 2
4 3 3 2 3 3 3 3 4 4 5 6 6 5 4 5 8 11 13 12 11 10 8 5 1 1 1 3 4 4 4 3 2 2 3 3 3 2 2 2 2 2 2 1
4 4 4 3 3 3 3 3 3 3 4 5 6 5 5 5 7 10 11 12 12 12 10 6 3 2 2 3 4 4 3 1 0 0 1 1 1 1 1 1 1 1 1 0